Weather in Luhansk

Ukraine / Luhansk Region     48˚34′26″N   39˚18′27″E
temp.,
°C
wind,
m/s
gust,
m/s
humid.,
%
clouds,
%
prec.,
mm/h
press.,
hPa
HPBL,
m
1 december, tue
tue123:00ese6137429 0.0 1028631
02:00ese6138215 0.0 1028625
05:00−1˚ese6138545 0.0 1028617
08:00−1˚ese8148257 0.0 1029590
11:00ese8127590 0.0 1029738
14:00+1˚ese7117695 0.0 1028899
17:00e71281100 0.0 1029748
20:00−1˚ese7138196 0.0 1029641
2 december, wed
wed223:00−1˚ese7118195 0.0 1030673
02:00−1˚e7118197 0.0 1030540
05:00−2˚e71181100 0.0 1030440
08:00−2˚e71282100 0.0 1031468
11:00−1˚ese71179100 0.0 1030535
14:00ese61076100 0.0 1030624
17:00−1˚ese6117799 0.0 1030618
20:00−1˚ese6118099 0.0 1031561
3 december, thu
thu323:00−1˚ese61083100 0.0 1031491
02:00ese61184100 0.0 1031480
05:00−1˚ese71184100 0.0 1030499
08:00ese71184100 0.0 1031571
11:00+1˚ese71180100 0.0 1030589
14:00+1˚ese61086100 0.1 1030576
17:00ese61192100 0.3 1030505
20:00ese61087100 0.3 1030491
4 december, fri
fri423:00ese6985100 0.1 1029456
02:00ese5987100 0.1 1029471
05:00−1˚ese61094100 0.3 1029450
08:00−1˚ese61189100 0.5 1029463
11:00+1˚ese61084100 0.0 1029467
14:00+1˚ese61081100 0.0 1029573
17:00ese71179100 0.0 1029558
20:00ese6127799 0.0 1029557
5 december, sat
sat523:00−1˚ese6117560 0.0 1030480
02:00−2˚ese6117653 0.0 1030420
05:00−2˚ese7117268 0.0 1030404
08:00−2˚ese6107284 0.0 1031395
11:00e696665 0.0 1031432
14:00e6106374 0.0 1031472
17:00−2˚e5126211 0.0 1032421
20:00−3˚ese612595 0.0 1033434